sat.trackr.live / text

‹ back to catalog

STARLINK-30440

NORAD 57923 · 2023-147L

PAYLOAD ACTIVE UNKNOWN

§ Identity

Operator
Country
US
Launch date
2023-09-24
Launch site
AFETR
Launch vehicle
Mass (kg)
RCS (m²)

Purposes: comms

External: N2YO · Heavens-Above · Gunter

§ Orbital elements

Epoch: 2026-05-24T23:55:30.417312Z

Period
94.27 min
Inclination
43.0010°
Eccentricity
0.0001182
Mean motion
15.27577360 rev/d
Perigee alt
482.2 km
Apogee alt
483.9 km
Semi-major
6,861.2 km
B*
2.1708e-5
RAAN
254.6507°
Arg perigee
275.9665°
Mean anomaly
84.1052°
Rev number
14,829

§ Raw data

STARLINK-304401 57923U 23147L   26144.99687983  .00000335  00000+0  21708-4 0  99912 57923  43.0010 254.6507 0001182 275.9665  84.1052 15.27577360148294

JSON: /api/v1/satellites/57923 · /tle

For live sub-satellite position, see the globe view (requires WebGL).

§ Visibility from observer

Set your observer location to see the next 7 days of passes ≥ 10°. The values pass through the URL so the page stays shareable.

No JS? Fill the form by hand. The geolocation button needs JavaScript.